EW4883 Weather Reports


Display with metric or nautical units.
time (UTC)temp
F
wind
direction
speed
MPH
gust
MPH
rain 1hr
in
rain 24hr
in
rain mn
in
humidity
%
barometer
mb
20260506044052 64 0 0.0 3.0 0.00 0.29 0.15 51 1014.0
20260506043553 64 0 1.0 7.0 0.00 0.29 0.15 50 1013.9
20260506043053 64 0 1.0 7.0 0.00 0.29 0.15 50 1014.0
20260506042553 64 267 1.0 9.0 0.00 0.29 0.15 50 1014.0
20260506042052 65 266 2.0 9.0 0.00 0.29 0.15 49 1013.9
20260506041605 65 285 3.0 11.0 0.00 0.29 0.15 48 1013.8
20260506041052 65 261 5.0 11.0 0.00 0.29 0.15 47 1013.7
20260506040550 65 252 3.0 9.0 0.00 0.29 0.15 47 1013.5
20260506040100 65 235 4.0 9.0 0.00 0.29 0.15 47 1013.3
20260506035552 65 239 4.0 13.0 0.00 0.30 0.15 46 1013.2
20260506035052 66 221 4.0 13.0 0.00 0.30 0.15 46 1013.1
20260506034556 66 225 4.0 14.0 0.00 0.30 0.15 46 1013.0
20260506034050 66 230 4.0 14.0 0.00 0.30 0.15 45 1013.0
20260506033554 66 220 6.0 14.0 0.00 0.30 0.15 45 1013.0
20260506033110 66 230 4.0 10.0 0.00 0.30 0.15 45 1013.0
20260506032552 66 232 4.0 10.0 0.00 0.30 0.15 44 1013.0
20260506032126 66 221 4.0 13.0 0.00 0.30 0.15 43 1012.8
20260506031557 67 215 5.0 14.0 0.00 0.30 0.15 42 1012.7
20260506031056 67 227 6.0 14.0 0.00 0.30 0.15 41 1012.7
20260506030557 67 237 5.0 11.0 0.00 0.30 0.15 40 1012.7
20260506030055 67 229 5.0 14.0 0.00 0.30 0.15 37 1012.5
20260506025552 67 247 7.0 14.0 0.00 0.31 0.15 36 1012.4
20260506025052 67 234 6.0 13.0 0.00 0.31 0.15 36 1012.4
20260506024552 67 226 5.0 11.0 0.00 0.31 0.15 36 1012.4
20260506024052 67 223 4.0 13.0 0.00 0.31 0.15 36 1012.2
20260506023554 67 246 6.0 15.0 0.00 0.31 0.15 35 1012.1
20260506023052 68 239 6.0 15.0 0.00 0.31 0.15 35 1012.0
20260506022552 68 245 9.0 15.0 0.00 0.31 0.15 34 1011.9
20260506022049 68 234 6.0 14.0 0.00 0.31 0.15 33 1011.8
20260506021554 68 238 6.0 15.0 0.00 0.31 0.15 32 1011.6
20260506021049 68 221 9.0 15.0 0.00 0.31 0.15 31 1011.5
20260506020549 68 246 7.0 16.0 0.00 0.31 0.15 32 1011.4
20260506020052 69 232 8.0 16.0 0.00 0.31 0.15 31 1011.4
20260506015556 69 244 9.0 17.0 0.00 0.34 0.15 31 1011.3
20260506015053 69 217 8.0 17.0 0.00 0.34 0.15 30 1011.3
20260506014555 69 253 7.0 18.0 0.00 0.34 0.15 29 1011.3
20260506014051 70 257 9.0 18.0 0.00 0.34 0.15 30 1011.2
20260506013549 70 219 9.0 19.0 0.00 0.34 0.15 30 1011.3
20260506013055 70 239 9.0 19.0 0.00 0.34 0.15 30 1011.3
20260506012553 70 246 10.0 19.0 0.00 0.34 0.15 30 1011.2
20260506012052 71 244 11.0 19.0 0.00 0.34 0.15 31 1011.3
20260506011553 71 254 7.0 21.0 0.00 0.34 0.15 32 1011.3
20260506011052 71 215 9.0 21.0 0.00 0.34 0.15 32 1011.2
20260506010555 71 263 9.0 17.0 0.00 0.34 0.15 33 1011.2
20260506010055 71 237 9.0 16.0 0.00 0.34 0.15 33 1011.1
20260506005552 71 275 8.0 19.0 0.00 0.35 0.15 32 1011.1
20260506005052 72 262 10.0 19.0 0.00 0.35 0.15 31 1011.1
20260506004557 72 238 9.0 19.0 0.00 0.35 0.15 31 1011.1
20260506004052 72 231 7.0 16.0 0.00 0.35 0.15 31 1010.9
20260506003553 71 230 8.0 16.0 0.00 0.35 0.15 31 1010.9
20260506003053 72 252 6.0 20.0 0.00 0.35 0.15 30 1010.9
20260506002553 72 235 9.0 20.0 0.00 0.35 0.15 29 1010.9
20260506002053 73 236 12.0 20.0 0.00 0.35 0.15 28 1010.8
20260506001609 72 269 5.0 19.0 0.00 0.35 0.15 28 1010.8
20260506001053 73 269 6.0 19.0 0.00 0.35 0.15 29 1010.8
20260506000553 73 217 11.0 19.0 0.00 0.35 0.15 27 1010.8
20260505235552 75 249 1.0 10.0 0.00 0.35 0.15 27 1010.6
20260505235052 75 202 3.0 15.0 0.00 0.35 0.15 28 1010.6
20260505234600 74 230 4.0 15.0 0.00 0.35 0.15 29 1010.6
20260505234056 74 234 2.0 15.0 0.00 0.35 0.15 28 1010.6
20260505233551 74 273 5.0 13.0 0.00 0.35 0.15 26 1010.3
20260505233101 74 213 2.0 16.0 0.00 0.35 0.15 26 1010.4
20260505232552 75 161 5.0 16.0 0.00 0.35 0.15 26 1010.4
20260505232053 76 243 4.0 12.0 0.00 0.35 0.15 25 1010.3
20260505231602 76 0 3.0 12.0 0.00 0.35 0.15 25 1010.3
20260505231051 75 188 2.0 12.0 0.00 0.35 0.15 26 1010.1
20260505230552 75 0 2.0 12.0 0.00 0.35 0.15 28 1010.4
20260505230117 74 220 4.0 11.0 0.00 0.35 0.15 27 1010.4
20260505225553 75 198 2.0 9.0 0.00 0.35 0.15 27 1010.6
20260505225055 75 122 4.0 12.0 0.00 0.35 0.15 26 1010.6
20260505224559 75 198 1.0 16.0 0.00 0.35 0.15 25 1010.6
20260505224053 75 243 5.0 16.0 0.00 0.35 0.15 26 1010.7
20260505223552 76 223 2.0 12.0 0.00 0.35 0.15 26 1010.5
20260505223100 75 184 2.0 12.0 0.00 0.35 0.15 29 1010.7
20260505222552 75 232 6.0 12.0 0.00 0.35 0.15 29 1010.8
20260505222053 75 277 6.0 12.0 0.00 0.35 0.15 30 1010.8
20260505221555 74 248 5.0 12.0 0.00 0.35 0.15 32 1010.8
20260505221052 72 229 3.0 11.0 0.00 0.35 0.15 33 1010.9
20260505220550 73 277 5.0 11.0 0.00 0.35 0.15 32 1010.9
20260505220055 73 219 2.0 11.0 0.00 0.35 0.15 32 1011.1
20260505215549 73 201 2.0 12.0 0.00 0.35 0.15 32 1011.1
20260505215053 74 186 5.0 13.0 0.00 0.35 0.15 31 1011.1
20260505214605 74 352 7.0 13.0 0.00 0.35 0.15 31 1011.2
20260505214050 73 230 4.0 19.0 0.00 0.35 0.15 31 1011.2
20260505213552 74 226 6.0 19.0 0.00 0.35 0.15 31 1011.4
20260505213059 75 161 3.0 13.0 0.00 0.35 0.15 32 1011.5
20260505212552 74 0 5.0 11.0 0.00 0.35 0.15 35 1011.4
20260505212052 73 225 3.0 12.0 0.00 0.35 0.15 33 1011.5
20260505211607 72 217 6.0 13.0 0.00 0.35 0.15 34 1011.5
20260505211052 72 242 3.0 13.0 0.00 0.35 0.15 37 1011.5
20260505210552 72 261 6.0 16.0 0.00 0.35 0.15 39 1011.5
20260505210104 72 319 5.0 16.0 0.00 0.35 0.15 35 1011.5
20260505205552 73 227 4.0 12.0 0.00 0.35 0.15 32 1011.5
20260505205052 74 161 6.0 12.0 0.00 0.35 0.15 32 1011.6
20260505204558 74 136 4.0 10.0 0.00 0.35 0.15 32 1011.6
20260505204053 75 223 3.0 13.0 0.00 0.35 0.15 31 1011.6
20260505203553 75 219 3.0 13.0 0.00 0.35 0.15 33 1011.7
20260505203054 75 236 3.0 9.0 0.00 0.35 0.15 31 1011.7
20260505202553 75 217 1.0 15.0 0.00 0.35 0.15 32 1011.6
20260505202054 75 223 5.0 15.0 0.00 0.35 0.15 33 1011.8
20260505201605 75 227 6.0 16.0 0.00 0.35 0.15 33 1011.7
20260505201053 74 170 5.0 16.0 0.01 0.35 0.15 34 1011.7
20260505200553 74 178 6.0 14.0 0.01 0.35 0.15 33 1011.7
20260505200052 74 0 2.0 17.0 0.01 0.35 0.15 34 1011.7
20260505195553 74 268 4.0 17.0 0.01 0.35 0.15 35 1011.7
20260505195054 73 228 6.0 18.0 0.01 0.35 0.15 36 1011.8
20260505194554 73 236 9.0 18.0 0.01 0.35 0.15 36 1012.0
20260505194053 73 223 7.0 17.0 0.01 0.35 0.15 37 1012.0
20260505193552 73 181 4.0 17.0 0.01 0.35 0.15 37 1011.9
20260505193052 73 217 6.0 13.0 0.01 0.35 0.15 39 1012.0
20260505192556 73 201 2.0 20.0 0.01 0.35 0.15 40 1012.0
20260505192053 72 229 8.0 20.0 0.01 0.35 0.15 39 1012.2
20260505191558 72 223 5.0 21.0 0.01 0.35 0.15 41 1012.2
20260505191053 72 161 5.0 21.0 0.00 0.34 0.14 42 1012.0
20260505190556 73 219 5.0 18.0 0.00 0.34 0.14 43 1012.1
20260505190112 72 0 6.0 18.0 0.00 0.34 0.14 46 1012.2
20260505185552 72 237 4.0 18.0 0.00 0.34 0.14 45 1012.1
20260505185052 71 230 6.0 12.0 0.00 0.34 0.14 47 1012.2
20260505184605 70 228 5.0 14.0 0.00 0.34 0.14 48 1012.4
20260505184053 70 294 6.0 14.0 0.00 0.34 0.14 49 1012.4
20260505183552 71 236 2.0 9.0 0.00 0.34 0.14 52 1012.5
20260505183054 70 242 2.0 9.0 0.00 0.34 0.14 55 1012.7
20260505182552 69 0 3.0 9.0 0.00 0.34 0.14 53 1012.7
20260505182056 69 0 3.0 8.0 0.00 0.34 0.14 55 1012.8
20260505181552 68 0 1.0 10.0 0.00 0.34 0.14 55 1012.8
20260505181055 67 198 4.0 11.0 0.00 0.34 0.14 58 1013.0
20260505180552 67 230 4.0 12.0 0.00 0.34 0.14 56 1012.9
20260505180053 67 219 5.0 12.0 0.00 0.34 0.14 58 1013.1
20260505175552 68 227 3.0 8.0 0.00 0.34 0.14 57 1013.1
20260505175053 67 214 1.0 5.0 0.00 0.34 0.14 58 1013.2
20260505174553 66 0 0.0 7.0 0.00 0.34 0.14 60 1013.2
20260505174053 66 219 3.0 7.0 0.00 0.34 0.14 58 1013.2
20260505173553 66 0 2.0 7.0 0.00 0.34 0.14 58 1013.2
20260505173053 66 138 1.0 10.0 0.00 0.34 0.14 61 1013.2
20260505172552 65 123 4.0 10.0 0.00 0.34 0.14 61 1013.4
20260505172053 65 0 1.0 5.0 0.00 0.34 0.14 63 1013.3
20260505171556 64 32 0.0 3.0 0.00 0.34 0.14 66 1013.2
20260505171057 64 51 0.0 3.0 0.00 0.34 0.14 65 1013.1
20260505170559 64 51 0.0 4.0 0.00 0.34 0.14 65 1013.2
20260505170103 64 0 2.0 5.0 0.00 0.34 0.14 65 1013.2
20260505165552 64 51 1.0 5.0 0.00 0.34 0.14 68 1013.1
20260505165052 64 51 1.0 5.0 0.00 0.34 0.14 67 1013.2
20260505164554 64 55 1.0 5.0 0.00 0.34 0.14 69 1013.2
20260505164052 63 0 0.0 6.0 0.00 0.34 0.14 71 1013.2
20260505163555 63 0 2.0 7.0 0.00 0.34 0.14 70 1013.1
20260505163102 63 54 3.0 7.0 0.00 0.34 0.14 70 1013.1
20260505162553 63 67 1.0 4.0 0.00 0.34 0.14 70 1013.0
20260505162053 63 68 0.0 4.0 0.00 0.34 0.14 72 1013.1
20260505161556 63 68 1.0 4.0 0.00 0.34 0.14 71 1013.2
20260505161053 63 69 1.0 4.0 0.00 0.34 0.14 72 1013.2
20260505160552 63 0 0.0 3.0 0.00 0.34 0.14 73 1013.2
20260505160103 62 0 0.0 3.0 0.00 0.34 0.14 72 1013.2
20260505153108 62 0 1.0 3.0 0.00 0.34 0.14 74 1013.0
20260505152551 62 0 0.0 2.0 0.00 0.34 0.14 78 1013.0
20260505152051 61 0 0.0 1.0 0.00 0.34 0.14 77 1013.0
20260505151555 61 0 0.0 1.0 0.00 0.34 0.14 79 1013.0
20260505151053 61 0 0.0 2.0 0.00 0.34 0.14 81 1013.1
20260505150553 60 150 0.0 2.0 0.00 0.34 0.14 83 1013.1
20260505150115 60 0 0.0 3.0 0.00 0.34 0.14 83 1013.1
20260505140552 59 0 0.0 1.0 0.00 0.34 0.14 88 1013.0
20260505140112 59 0 0.0 1.0 0.00 0.34 0.14 88 1012.9
20260505124559 57 0 0.0 0.0 0.00 0.34 0.14 89 1012.1
20260505124053 57 0 0.0 0.0 0.00 0.34 0.14 89 1012.0
20260505123556 57 0 0.0 3.0 0.00 0.34 0.14 89 1011.8
20260505123110 57 0 0.0 3.0 0.00 0.34 0.14 89 1011.8
20260505122555 57 130 0.0 2.0 0.00 0.34 0.14 89 1011.8
20260505122053 57 0 0.0 1.0 0.00 0.34 0.14 89 1011.8
20260505121553 57 0 0.0 2.0 0.00 0.34 0.14 90 1011.8
20260505121053 57 0 0.0 2.0 0.00 0.34 0.14 90 1011.9
20260505120553 57 0 0.0 4.0 0.00 0.34 0.14 90 1011.8
20260505120055 57 0 0.0 4.0 0.00 0.34 0.14 90 1011.8
20260505115552 58 130 0.0 4.0 0.00 0.34 0.14 90 1011.4
20260505115052 58 130 0.0 7.0 0.01 0.34 0.14 90 1011.8
20260505114600 58 130 2.0 7.0 0.01 0.34 0.14 90 1011.6
20260505114054 58 135 3.0 7.0 0.01 0.34 0.14 90 1011.6
20260505113557 58 115 3.0 7.0 0.01 0.34 0.14 91 1011.4
20260505113056 58 0 2.0 7.0 0.01 0.34 0.14 91 1011.5
20260505112553 58 101 2.0 7.0 0.01 0.34 0.14 91 1011.6
20260505112053 58 105 0.0 4.0 0.01 0.34 0.14 91 1012.0
20260505111559 58 105 1.0 6.0 0.01 0.34 0.14 91 1011.9
20260505111053 58 105 1.0 6.0 0.01 0.34 0.14 91 1011.9
20260505110553 58 105 2.0 6.0 0.02 0.34 0.14 91 1011.8
20260505102052 57 103 3.0 7.0 0.01 0.33 0.13 90 1012.2
20260505101553 57 104 2.0 6.0 0.02 0.33 0.13 90 1012.3
20260505101052 57 105 1.0 4.0 0.02 0.33 0.13 90 1012.8
20260505100552 57 107 1.0 4.0 0.01 0.32 0.12 90 1013.1
20260505100100 57 111 1.0 6.0 0.01 0.32 0.12 90 1013.2
20260505095552 58 114 1.0 8.0 0.01 0.32 0.12 90 1013.2
20260505095054 58 108 2.0 10.0 0.02 0.32 0.12 90 1013.0
20260505094552 58 121 3.0 10.0 0.02 0.32 0.12 90 1013.0
20260505094053 58 97 5.0 10.0 0.02 0.32 0.12 90 1013.1
20260505093555 58 127 4.0 10.0 0.02 0.32 0.12 90 1013.1
20260505093056 58 113 5.0 10.0 0.02 0.32 0.12 90 1013.0
20260505092557 58 85 4.0 10.0 0.02 0.32 0.12 90 1013.2
20260505092053 58 117 2.0 11.0 0.03 0.32 0.12 90 1013.4
20260505091551 58 116 3.0 14.0 0.03 0.31 0.11 90 1013.5
20260505091052 58 94 5.0 14.0 0.03 0.31 0.11 90 1013.4
20260505090552 58 119 5.0 11.0 0.04 0.31 0.11 90 1013.5
20260505090106 58 84 5.0 14.0 0.04 0.31 0.11 90 1013.4
20260505085553 58 113 6.0 14.0 0.05 0.31 0.11 90 1013.2
20260505085055 58 123 8.0 14.0 0.04 0.30 0.10 90 1013.3
20260505084555 58 123 5.0 11.0 0.04 0.30 0.10 90 1013.6
20260505084053 58 132 5.0 11.0 0.05 0.30 0.10 90 1013.7
20260505083553 58 116 4.0 9.0 0.06 0.30 0.10 90 1013.6
20260505083109 58 107 4.0 9.0 0.07 0.30 0.10 90 1013.8
20260505082553 58 77 2.0 5.0 0.08 0.30 0.10 90 1014.0
20260505082053 58 128 2.0 5.0 0.07 0.29 0.09 90 1014.4
20260505081554 58 129 2.0 7.0 0.07 0.28 0.08 90 1014.7
20260505081052 58 130 2.0 7.0 0.08 0.28 0.08 89 1014.8
20260505080552 58 108 2.0 7.0 0.07 0.27 0.07 89 1014.8
20260505080057 58 93 2.0 7.0 0.07 0.27 0.07 89 1014.9
20260505075552 58 106 2.0 9.0 0.06 0.26 0.06 89 1015.0
20260505075052 58 126 3.0 9.0 0.07 0.26 0.06 89 1015.0
20260505074559 58 116 3.0 9.0 0.07 0.26 0.06 89 1015.1
20260505074054 58 113 2.0 7.0 0.07 0.25 0.05 89 1015.2
20260505073552 58 125 3.0 7.0 0.06 0.24 0.04 89 1015.3
20260505073059 58 105 1.0 7.0 0.06 0.23 0.03 89 1015.3
20260505072550 58 110 2.0 7.0 0.05 0.22 0.02 89 1015.4
20260505072053 58 117 1.0 4.0 0.06 0.22 0.02 89 1015.4
20260505071558 58 117 1.0 6.0 0.05 0.21 0.01 88 1015.3
20260505071053 58 117 1.0 7.0 0.05 0.20 0.00 88 1015.3
20260505070553 58 119 1.0 7.0 0.06 0.20 0.00 88 1015.2
20260505070056 58 113 1.0 6.0 0.06 0.20 0.00 88 1015.2
20260505065553 58 0 1.0 6.0 0.06 0.20 0.20 88 1015.1
20260505065052 58 0 2.0 6.0 0.05 0.19 0.19 87 1015.1
20260505064556 58 0 1.0 7.0 0.05 0.19 0.19 87 1015.1
20260505064053 58 113 3.0 7.0 0.04 0.18 0.18 87 1015.4
20260505063552 58 138 0.0 5.0 0.05 0.18 0.18 87 1015.3
20260505063054 59 145 0.0 3.0 0.04 0.17 0.17 87 1015.2
20260505062553 59 0 0.0 3.0 0.05 0.17 0.17 86 1015.2
20260505062052 59 231 1.0 3.0 0.05 0.16 0.16 85 1015.0
20260505061550 59 0 1.0 3.0 0.05 0.16 0.16 84 1015.1
20260505061052 60 0 0.0 2.0 0.05 0.15 0.15 83 1015.0
20260505060552 60 0 0.0 2.0 0.04 0.14 0.14 82 1014.9
20260505060053 60 0 0.0 6.0 0.04 0.14 0.14 80 1014.9
20260505055553 60 0 0.0 6.0 0.04 0.14 0.14 79 1014.9
20260505055055 60 229 1.0 7.0 0.04 0.14 0.14 79 1014.8
20260505054552 60 0 3.0 7.0 0.05 0.14 0.14 79 1014.8
20260505054053 60 211 1.0 11.0 0.06 0.14 0.14 80 1014.8
20260505053552 61 213 1.0 12.0 0.05 0.13 0.13 79 1014.8
20260505053056 61 232 4.0 12.0 0.05 0.13 0.13 78 1014.9
20260505052554 61 223 2.0 12.0 0.04 0.12 0.12 78 1015.0
20260505052056 61 223 5.0 12.0 0.03 0.11 0.11 77 1015.0
20260505051551 61 219 4.0 13.0 0.04 0.11 0.11 78 1014.9
20260505051052 60 205 5.0 13.0 0.03 0.10 0.10 80 1014.7
20260505050552 59 219 3.0 13.0 0.03 0.10 0.10 83 1014.6
20260505050129 58 0 2.0 6.0 0.04 0.10 0.10 84 1014.6